This demonstration page uses our WeatherBlox Daily Observations layout. Learn more.

Left ArrowRight Arrow

41.12389, -100.76542

Hourly Observations for November 13, 2016

Temp ( °F °C ) Dew Point ( °F °C ) Humidity (%) Winds ( mph kmh ) Pressure ( in mb ) Visibility ( mi km ) Precip ( " mm )
12:53 am 00:53 Clear 41 5 21 -6.1 45 45 WNW 3 6 30.08 1019 10 16 0.00 0.00
1:53 am 01:53 Clear 30 -1.1 22 -5.6 72 72 Calm 30.06 1018 10 16 0.00 0.00
2:53 am 02:53 Clear 29 -1.7 21 -6.1 72 72 ESE 3 6 30.04 1017 10 16 0.00 0.00
3:53 am 03:53 Clear 29 -1.7 23 -5 78 78 SSE 6 9 30.02 1017 10 16 0.00 0.00
4:53 am 04:53 Clear 31 -0.6 22 -5.6 69 69 Calm 30.02 1017 10 16 0.00 0.00
5:53 am 05:53 Clear 32 0 24 -4.4 73 73 SSE 5 7 30.02 1017 10 16 0.00 0.00
6:53 am 06:53 Clear 32 0 24 -4.4 73 73 S 5 7 30.01 1016 10 16 0.00 0.00
7:53 am 07:53 Sunny 30 -1.1 24 -4.4 79 79 Calm 30.03 1017 10 16 0.00 0.00
8:53 am 08:53 Sunny 39 3.9 28 -2.2 65 65 W 3 6 30.03 1017 10 16 0.00 0.00
9:53 am 09:53 Sunny 46 7.8 30 -1.1 54 54 WSW 3 6 30.01 1016 10 16 0.00 0.00
10:53 am 10:53 Sunny 54 12.2 32 0 43 43 WNW 6 9 29.99 1016 10 16 0.00 0.00
11:53 am 11:53 Sunny 59 15 33 0.6 38 38 WNW 6 9 29.98 1015 10 16 0.00 0.00
12:53 pm 12:53 Sunny 63 17.2 33 0.6 33 33 VRB 3 6 29.94 1014 10 16 0.00 0.00
1:53 pm 13:53 Sunny 67 19.4 33 0.6 28 28 Calm 29.94 1014 10 16 0.00 0.00
2:53 pm 14:53 Sunny 72 22.2 32 0 23 23 N 13 20 29.93 1014 10 16 0.00 0.00
3:53 pm 15:53 Sunny 71 21.7 31 -0.6 23 23 N 16 26 29.94 1014 10 16 0.00 0.00
4:53 pm 16:53 Sunny 67 19.4 34 1.1 30 30 N 17 28 29.99 1016 10 16 0.00 0.00
5:53 pm 17:53 Clear 57 13.9 33 0.6 41 41 NE 8 13 30.02 1017 10 16 0.00 0.00
6:53 pm 18:53 Clear 45 7.2 32 0 61 61 WNW 6 9 30.08 1019 10 16 0.00 0.00
7:53 pm 19:53 Clear 40 4.4 31 -0.6 70 70 NW 5 7 30.11 1020 10 16 0.00 0.00
8:53 pm 20:53 Mostly Cloudy 43 6.1 34 1.1 71 71 WNW 6 9 30.11 1020 10 16 0.00 0.00
9:53 pm 21:53 Cloudy 48 8.9 37 2.8 66 66 Calm 30.10 1019 10 16 0.00 0.00
10:53 pm 22:53 Clear 39 3.9 32 0 76 76 W 5 7 30.09 1019 10 16 0.00 0.00
11:53 pm 23:53 Clear 39 3.9 33 0.6 79 79 Calm 30.07 1018 10 16 0.00 0.00

Powered by AerisWeather